Location: Unspecified
(0.0000°N, 0.0000°E)
Time: 10:38:52
(UTC+00:00)

MIDAS 4 DEB - Pass Details

Date: 12 November 2025
Orbit: 3271 x 3959 km, 95.8° (Epoch: 26 July)

Event Time Altitude Azimuth Distance (km) Brightness Sun altitude
Exits shadow 22:10:53 55° 279° (W) 4,126 ? -60.9°
Drops below altitude 10° 22:29:22 10° 207° (SSW) 6,994 ? -64.3°
Sets 22:34:16 0° 202° (SSW) 8,078 ? -65.1°
